This is the latest recevied weather packets stored in our database for station/object WO0TEN. If no packets are shown the sender has not sent any weather packets the latest 1 day(s).
| Time | Temp. | Humidity | Pressure | Rain* | Wind** | Luminosity | Snow |
|---|---|---|---|---|---|---|---|
| 1778028067 | 27.78° C | 7% | - | 7.37 mm | 0.89 m/s, 270° | - | - |
| 1778027467 | 27.78° C | 7% | - | 7.37 mm | 0.89 m/s, 293° | - | - |
| 1778026868 | 27.78° C | 7% | - | 7.37 mm | 0.45 m/s, 225° | - | - |
| 1778026269 | 27.78° C | 7% | - | 7.37 mm | 0 m/s | - | - |
| 1778025667 | 28.33° C | 7% | - | 7.37 mm | 0.89 m/s, 0° | - | - |
| 1778025067 | 28.33° C | 7% | - | 7.37 mm | 0.45 m/s, 270° | - | - |
| 1778024467 | 28.33° C | 7% | - | 7.37 mm | 0.89 m/s, 248° | - | - |
| 1778023867 | 28.33° C | 7% | - | 7.37 mm | 0.89 m/s, 293° | - | - |
| 1778023267 | 28.89° C | 7% | - | 7.37 mm | 0.45 m/s, 180° | - | - |
| 1778022668 | 28.89° C | 7% | - | 7.37 mm | 0.45 m/s, 338° | - | - |
| 1778022068 | 28.89° C | 7% | - | 7.37 mm | 0.89 m/s, 270° | - | - |
| 1778021467 | 28.89° C | 7% | - | 7.37 mm | 1.79 m/s, 270° | - | - |
| 1778020868 | 28.89° C | 7% | - | 7.37 mm | 0.89 m/s, 270° | - | - |
| 1778020268 | 29.44° C | 7% | - | 7.37 mm | 0.89 m/s, 270° | - | - |
| 1778019668 | 29.44° C | 7% | - | 7.37 mm | 0.89 m/s, 315° | - | - |
| 1778019068 | 30° C | 7% | - | 7.37 mm | 0.45 m/s, 270° | - | - |
| 1778018467 | 30.56° C | 6% | - | 7.37 mm | 0 m/s | - | - |
| 1778017868 | 30.56° C | 7% | - | 7.37 mm | 0.45 m/s, 338° | - | - |
| 1778017268 | 30.56° C | 6% | - | 7.37 mm | 0.89 m/s, 248° | - | - |
| 1778016667 | 31.11° C | 6% | - | 7.37 mm | 1.34 m/s, 338° | - | - |
| 1778016068 | 30.56° C | 6% | - | 7.37 mm | 0.89 m/s, 23° | - | - |
| 1778015468 | 30.56° C | 6% | - | 7.37 mm | 0.89 m/s, 270° | - | - |
| 1778014868 | 31.11° C | 6% | - | 7.37 mm | 0.45 m/s, 270° | - | - |
| 1778014267 | 31.67° C | 6% | - | 7.37 mm | 1.34 m/s, 293° | - | - |
| 1778013668 | 31.67° C | 6% | - | 7.37 mm | 0.45 m/s, 270° | - | - |
* Rain since midnight (hover to see other rain measurements)
** Current wind speed in m/s (hover to see current wind gust speed)